Weather History for Svalbard, Norway

Change the Weather History Date:

Wednesday, November 21, 2012

  Actual Average Record
Temperature  
Mean Temperature 14 °F -  
Max Temperature 19 °F 19 °F 50 °F (2000)
Min Temperature 6 °F 10 °F -7 °F (2010)
Degree Days  
Heating Degree Days 52    
Moisture  
Dew Point 6 °F    
Average Humidity 71    
Maximum Humidity 85    
Minimum Humidity 61    
Precipitation  
Precipitation 0.00 in 0.02 in - ()
Sea Level Pressure  
Sea Level Pressure 29.80 in    
Wind  
Wind Speed 9 mph ()    
Max Wind Speed 13 mph    
Max Gust Speed -    
Visibility 6.1 miles    
Events Snow    
Averages and records for this station are not official NWS values.
T = Trace of Precipitation, MM = Missing Value Source: Averaged Metar Reports

Daily Weather History Graph

Daily Weather History Graph

Search for Another Location

Airport:

Trip Planner

Search our weather history database for the weather conditions in past years. The results will help you decide how hot, cold, wet, or windy it might be!

Date:

Astronomy

Jan. 01, 1970 Rise Set
Actual Time Sun does not rise Sun does not rise
Civil Twilight Sun does not rise Sun does not rise
Nautical Twilight 8:30 AM CET 2:55 PM CET
Astronomical Twilight 6:15 AM CET 5:11 PM CET
Moon 1:33 PM CET (11/21) No Moon Set
Length of Visible Light 0h 00m
Length of Day
0h 00m
First Quarter, 59% of the Moon is Illuminated
Nov 21
First Quarter
Nov 28
Full
Dec 6
Last Quarter
Dec 13
New
Dec 20
First Quarter

Hourly Weather History & Observations

Time (CET) Temp. Windchill Dew Point Humidity Pressure Visibility Wind Dir Wind Speed Gust Speed Precip Events Conditions
12:50 AM 17.6 °F 10.7 °F 12.2 °F 79% 29.80 in 5.0 mi SE 4.6 mph - N/A Snow Light Snow
1:00 AM 18 °F - 13 °F 72% 29.81 in 4 mi SE 4.5 mph - - Snow Light Snow
1:50 AM 19.4 °F 7.9 °F 12.2 °F 74% 29.80 in 6.2 mi SSE 10.4 mph - N/A Snow Light Snow
2:50 AM 17.6 °F 5.7 °F 10.4 °F 73% 29.80 in 6.2 mi SE 10.4 mph - N/A   Mostly Cloudy
4:50 AM 17.6 °F 7.3 °F 8.6 °F 68% 29.80 in 6.2 mi ESE 8.1 mph - N/A   Mostly Cloudy
5:50 AM 17.6 °F 5.7 °F 8.6 °F 68% 29.80 in 6.2 mi SSE 10.4 mph - N/A   Mostly Cloudy
6:50 AM 17.6 °F 6.4 °F 8.6 °F 68% 29.80 in 6.2 mi SE 9.2 mph - N/A   Scattered Clouds
7:00 AM 16 °F - 8 °F 61% 29.81 in 34 mi SE 11.2 mph - -   Partly Cloudy
7:50 AM 17.6 °F 5.0 °F 8.6 °F 68% 29.80 in 6.2 mi SSE 11.5 mph - N/A Snow Light Snow
8:50 AM 19.4 °F 6.6 °F 8.6 °F 63% 29.80 in 6.2 mi SE 12.7 mph - N/A Snow Light Snow
9:50 AM 19.4 °F 8.6 °F 8.6 °F 63% 29.80 in 6.2 mi SE 9.2 mph - N/A Snow Light Snow
10:50 AM 17.6 °F 5.0 °F 8.6 °F 68% 29.80 in 6.2 mi SSE 11.5 mph - N/A Snow Light Snow
11:50 AM 15.8 °F 2.1 °F 6.8 °F 68% 29.80 in 6.2 mi SSE 12.7 mph - N/A Snow Light Snow
12:50 PM 15.8 °F 2.7 °F 5.0 °F 62% 29.80 in 6.2 mi SE 11.5 mph - N/A   Scattered Clouds
1:00 PM 14 °F - 7 °F 61% 29.83 in 34 mi SE 11.2 mph - -   Partly Cloudy
1:50 PM 12.2 °F -2.5 °F 5.0 °F 73% 29.80 in 6.2 mi ESE 12.7 mph - N/A   Scattered Clouds
2:50 PM 10.4 °F -4.1 °F 3.2 °F 73% 29.80 in 6.2 mi ESE 11.5 mph - N/A   Scattered Clouds
3:50 PM 10.4 °F -4.8 °F 3.2 °F 73% 29.80 in 6.2 mi ESE 12.7 mph - N/A   Partly Cloudy
4:50 PM 10.4 °F -4.1 °F 3.2 °F 73% 29.80 in 6.2 mi ESE 11.5 mph - N/A   Partly Cloudy
5:50 PM 10.4 °F -3.3 °F 3.2 °F 73% 29.80 in 6.2 mi ESE 10.4 mph - N/A   Partly Cloudy
6:50 PM 10.4 °F -3.3 °F 5.0 °F 79% 29.80 in 6.2 mi SE 10.4 mph - N/A   Partly Cloudy
7:00 PM 10 °F - 4 °F 69% 29.81 in 44 mi SE 11.2 mph - -   Partly Cloudy
7:50 PM 12.2 °F -1.8 °F 5.0 °F 73% 29.77 in 6.2 mi SE 11.5 mph - N/A   Partly Cloudy
8:50 PM 8.6 °F -6.3 °F 1.4 °F 73% 29.77 in 6.2 mi SE 11.5 mph - N/A   Partly Cloudy
9:50 PM 8.6 °F -6.3 °F 1.4 °F 73% 29.80 in 6.2 mi SE 11.5 mph - N/A   Partly Cloudy
10:50 PM 8.6 °F -6.3 °F 1.4 °F 73% 29.80 in 6.2 mi ESE 11.5 mph - N/A   Partly Cloudy
11:50 PM 6.8 °F -9.3 °F 3.2 °F 85% 29.80 in 6.2 mi ESE 12.7 mph - N/A   Partly Cloudy